Regional Weather Roundup
Issued by NWS Newport/Morehead, NC

Current Version | Previous Version | Text Only | Print | Product List | Glossary Off
Versions: 1 2 3 4 5 6 7 8 9 10 11 12 13 14 15 16 17 18 19 20 21 22 23 24 25 26 27 28 29 30 31 32 33 34 35 36 37 38 39 40 41 42 43 44 45 46 47 48 49 50
000 ASUS42 KMHX 021925 RWRMHX WEATHER ROUNDUP FOR EASTERN NORTH CAROLINA NATIONAL WEATHER SERVICE NEWPORT/MOREHEAD CITY NC 300 PM EDT THU JUL 02 2015 NOTE: "FAIR" INDICATES FEW OR NO CLOUDS BELOW 12,000 FEET WITH NO SIGNIFICANT WEATHER AND/OR OBSTRUCTIONS TO VISIBILITY NCZ015>017-031-032-045>047-102-103-022000- NORTH COAST CITY SKY/WX TMP DP RH WIND PRES REMARKS EDENTON N/A 85 72 63 SW12G18 29.87 ELIZABETH CITY PTSUNNY 85 70 60 SW16 29.87S KITTY HAWK CLOUDY 89 69 51 SW10 29.87 MANTEO PTSUNNY 87 69 54 SW16G22 29.87 $$ NCZ045>047-081-094-103-104-022000- CENTRAL COAST CITY SKY/WX TMP DP RH WIND PRES REMARKS FRISCO MOSUNNY 83 74 74 SW14 29.93F SWANQUARTER N/A 90 N/A N/A SW14G22 29.85S $$ NCZ095-097-098-100-101-022000- SOUTHERN COAST CITY SKY/WX TMP DP RH WIND PRES REMARKS BEAUFORT MOSUNNY 85 74 69 SW22 29.94F CEDAR ISLAND N/A 90 N/A N/A SW12G22 29.97S JACKSONVILLE MOSUNNY 89 67 47 SW15G21 29.92F PINEY ISLAND PTCLDY N/A N/A N/A S20G26 29.92F WILMINGTON PTSUNNY 89 71 55 SW15G21 29.94F $$ NCZ011>013-027>030-043-044-078>080-089-090>093-098-022000- COASTAL PLAIN CITY SKY/WX TMP DP RH WIND PRES REMARKS AHOSKIE CLOUDY 81 72 73 CALM 29.88S CLINTON MOSUNNY 89 71 54 SW12G18 29.92 ELIZABETHTOWN SUNNY 89 69 52 SW14G20 29.93 GOLDSBORO MOSUNNY 89 69 50 W12G18 29.88F GREENVILLE PTSUNNY 86 68 54 W9G16 29.91 HAVELOCK PTSUNNY 89 70 53 SW16G22 29.93S KENANSVILLE SUNNY 89 67 47 SW8G18 29.92 KINSTON MOSUNNY 90 66 45 SW13 29.90F NEW BERN PTSUNNY 90 70 51 W7 29.92F RICHLANDS MOSUNNY 91 68 46 SW15G22 29.91F ROCKY MOUNT MOSUNNY 85 68 56 SW13 29.89F WASHINGTON PTSUNNY 89 67 48 W17G23 29.88 WHITEVILLE MOSUNNY 87 70 56 SW9G16 29.94 $$ AMZ130-135-150-152-154-156-158-170-250-252-270-ANZ085-086-088-633-658-670-022000- MARINE OBSERVATIONS STATION/POSITION TIME TEMP WIND PRES WAVE SWELL AIR SEA DIR/SP/G HT/PER HT/PER (UTC) (F) (DEG/KT/KT) (MB) (FT/S) (FT/S) CHESAPEAKE LIGHT 1900 80 200/ 11/ 11 1011.1 64 E VA BEACH 1850 79 77 190/ 16/ 17 1011.0 5/ 8 3/ 8 DUCK 1900 85 62 220/ 14/ 17 1010.4 2 E DUCK 1811 71 N/A 2/ 8 OREGON INLET 1900 82 83 190/ 21/ 25 1012.0 13E OREGON INLT 1900 76 N/A 4/ 9 HATTERAS CG 1900 83 79 210/ 10/ 15 1013.0 DIAMOND BUOY 1850 82 83 220/ 21/ 23 1013.3 4/ 6 2/ 8 CAPE LOOKOUT 1900 83 220/ 12/ 18 1013.7 BEAUFORT LAB 1900 83 82 210/ 13/ 17 1013.0 30 SE NEW RVR IN NOT AVBL 27 SE WRIGHTSVLE 1900 81 240/ 17/ 19 N/A 5 SE WRIGHTSVLE 1808 81 80 210/ 17/ 21 1014.2 225 S CAPE HAT 1850 77 80 240/ 16/ 17 1020.8 6/ 7 3/ 7 41 SE CHARLESTON 1850 82 82 220/ 16/ 17 1016.3 4/ 8 2/ 8 $$

USA.gov is the U.S. government's official web portal to all federal, state and local government web resources and services.